Location: Newark
(53.3333°N, 83.7500°E)
Time: 05:52:32
(UTC+00:00)

Vanguard 2 - Pass Details

Date: 21 November 2019
Orbit: 553 x 2938 km, 32.9° (Epoch: 07 December)

Event Time Altitude Azimuth Distance (km) Brightness Sun altitude
Rises 00:45:38 0° 201° (SSW) 5,941 12.0 -10.7°
Reaches altitude 10° 00:55:39 10° 164° (SSE) 4,087 11.8 -9.3°
Maximum altitude 00:56:17 10° 161° (SSE) 4,019 11.8 -9.3°
Drops below altitude 10° 00:56:55 10° 157° (SSE) 3,964 11.8 -9.2°
Sets 01:04:14 0° 116° (ESE) 4,182 13.8 -8.2°
